Theta_e
316 316 320 320 321 321 326 332 328 327 329 320 315 319 317 318 322 318 319 318 319 320 319 324 326 326 326 329 333 334 334 337 337 334 334 335 336 340 340 338 338 335 334 337 337 338 338 340 338 338 336 330 327 329 330 329 329 329 328 327 323 323 323 325 328 330 331 331 331 331 331 331 332 331 331 332 332 331 329 329 328 329 329 329 330 330 330 330 330 331 331 332 330 331 329 326 327
317 318 322 322 321 321 328 336 332 325 324 316 313 320 317 317 321 319 321 319 320 321 324 330 332 332 332 334 335 331 329 333 333 333 336 336 339 341 339 339 336 334 334 336 338 339 339 340 338 338 336 330 326 328 330 330 329 329 329 328 325 322 322 324 327 329 330 330 331 331 330 330 332 332 332 332 332 332 330 329 328 329 330 330 330 330 330 330 330 330 331 331 330 330 330 328 327
317 321 324 323 323 324 331 333 328 324 321 316 317 321 318 319 321 321 321 319 322 324 326 328 330 330 330 336 334 329 328 331 333 335 337 339 340 340 340 338 335 333 334 338 339 339 339 339 338 337 336 331 327 329 331 330 330 330 330 329 326 323 321 323 326 327 328 330 331 331 330 330 331 332 332 332 332 332 329 328 329 330 330 330 330 330 330 330 330 330 331 331 330 330 330 329 328
319 323 323 325 328 331 338 333 329 326 319 318 319 320 323 324 322 321 319 320 321 322 321 322 329 324 329 342 333 331 334 333 334 336 339 339 339 341 340 337 336 333 333 338 339 339 339 339 338 337 336 333 329 330 331 330 330 329 330 329 327 324 320 322 324 326 327 329 331 331 331 331 330 330 330 331 331 332 330 326 327 329 329 330 329 329 329 330 330 330 330 330 330 329 329 329 329
320 323 321 324 330 331 331 326 327 325 317 320 319 321 330 327 323 322 318 319 317 317 318 324 332 323 328 335 329 334 337 335 336 335 339 339 340 341 340 338 336 333 333 337 338 339 338 338 338 337 336 334 332 331 332 331 330 330 330 329 328 325 321 320 321 324 326 327 330 331 332 331 330 331 329 330 330 331 331 327 327 328 328 329 329 328 329 329 330 330 329 329 329 328 328 329 329
321 323 322 322 322 323 323 316 318 321 318 322 322 323 329 325 323 323 318 317 316 317 320 327 332 330 334 331 328 335 333 335 337 335 337 339 340 340 339 337 336 334 332 334 337 338 337 338 337 337 336 335 334 332 332 331 330 330 330 330 328 326 322 320 319 321 324 327 330 331 331 329 329 331 329 330 331 332 332 328 326 327 327 328 328 328 328 329 329 329 329 328 328 327 328 328 328
321 322 327 327 321 322 326 321 318 321 317 318 325 326 324 323 322 321 318 318 317 318 323 327 330 334 335 328 328 332 331 334 334 336 338 340 340 340 339 337 337 335 332 334 336 337 337 338 337 337 336 335 334 334 333 332 331 330 330 330 329 327 323 320 318 318 323 327 329 330 330 328 328 330 330 331 332 332 331 326 323 325 327 327 327 327 328 329 329 329 328 327 327 327 328 327 328
322 323 329 334 327 326 327 321 319 322 316 314 322 324 323 324 321 319 319 320 318 319 323 323 326 330 328 327 334 332 331 333 334 337 338 340 341 339 339 338 337 336 334 334 335 336 336 337 337 337 337 336 335 334 334 333 332 331 331 330 329 327 324 321 319 316 319 325 327 329 330 328 329 330 331 332 332 332 330 326 321 323 327 327 326 327 327 328 328 328 327 326 326 326 327 327 327
321 321 326 329 326 328 326 317 316 319 318 317 319 321 322 321 318 318 320 319 317 318 320 319 320 323 325 332 337 331 332 335 334 337 338 340 340 340 340 338 337 336 336 334 335 335 335 337 336 337 337 336 335 335 334 333 332 331 331 331 330 328 326 322 319 317 318 323 326 328 329 329 329 330 331 331 332 331 329 326 321 323 326 326 326 327 327 328 328 327 326 326 325 324 325 326 326
323 323 325 330 327 323 319 316 318 318 317 319 319 321 321 318 317 317 319 318 316 317 316 319 324 324 328 336 336 330 332 335 334 337 340 340 340 341 340 337 336 335 336 336 336 335 335 336 336 337 336 336 335 335 335 334 333 332 332 331 330 328 327 324 321 318 317 322 325 327 328 328 329 329 330 330 331 330 329 325 321 324 326 326 327 326 327 327 327 327 326 326 324 322 323 325 326
329 329 328 333 327 317 317 317 318 319 316 317 317 320 319 317 317 316 319 317 316 319 315 319 329 331 329 331 333 330 330 333 334 337 339 340 341 340 340 338 336 335 336 336 335 334 335 335 336 337 335 336 335 335 335 334 334 333 332 331 331 329 328 325 322 319 317 320 325 326 327 328 328 328 328 329 329 329 329 325 323 324 325 325 326 325 326 326 326 326 325 325 323 321 321 323 325
327 331 338 335 325 320 323 320 316 319 315 316 318 317 317 314 316 317 318 318 317 320 318 318 325 328 328 327 328 328 331 333 334 338 338 339 340 340 340 339 339 337 336 336 335 334 335 336 336 336 335 336 335 336 335 334 335 334 332 331 331 330 328 326 323 320 317 318 323 326 326 327 327 327 327 326 327 327 327 325 323 324 324 325 324 324 325 326 326 325 324 324 323 322 321 321 323
335 335 338 326 321 322 322 320 318 319 315 318 319 315 315 313 317 320 319 319 318 319 316 316 322 326 327 326 328 329 332 334 333 338 339 339 340 340 340 340 340 339 338 337 334 333 334 335 336 336 336 335 336 336 335 334 334 334 333 331 331 330 329 327 325 322 318 316 320 325 325 326 327 326 324 324 325 325 324 323 323 324 324 324 324 325 325 325 325 324 324 324 323 323 321 321 322
337 338 336 320 316 319 319 319 318 318 318 320 318 313 313 314 316 319 319 319 318 318 313 313 321 328 327 325 332 335 333 333 333 336 338 339 340 340 340 340 340 340 340 337 334 333 333 334 336 336 336 335 336 336 334 334 334 334 333 332 331 331 330 328 326 324 320 316 317 321 323 324 325 324 322 322 324 323 323 322 322 323 323 323 323 324 324 324 324 324 324 323 323 322 321 321 322
329 339 341 327 316 315 317 318 317 318 320 319 315 314 314 313 313 315 317 320 317 314 310 310 316 320 324 325 332 335 332 333 333 334 336 338 338 340 340 340 340 340 340 337 335 333 332 334 335 335 336 336 335 335 335 334 334 334 333 333 331 331 330 329 327 325 322 318 315 316 320 321 322 322 320 319 322 322 322 322 322 322 322 322 323 324 323 324 324 323 323 323 322 321 321 321 321
331 340 335 326 317 314 316 317 316 317 319 318 313 313 315 312 312 314 313 316 314 313 318 316 316 318 319 322 324 325 329 333 332 333 336 337 338 339 339 340 341 340 340 338 335 333 333 334 334 335 335 336 335 334 334 334 335 334 333 333 332 331 331 330 328 326 324 321 316 314 316 318 319 320 317 315 318 320 320 321 322 321 321 322 323 323 323 323 323 323 323 322 321 321 321 322 322
330 336 330 323 319 317 317 317 316 318 320 317 313 314 317 313 312 312 310 315 315 318 327 323 321 324 324 325 322 322 330 332 333 335 336 338 338 338 338 340 340 340 340 338 335 334 334 334 334 334 334 335 335 333 333 334 334 334 334 333 332 332 331 330 329 327 325 322 317 314 313 315 317 318 316 313 314 316 318 321 321 320 320 322 323 323 323 322 322 322 322 321 321 321 321 322 322
328 335 329 320 322 323 322 320 316 318 319 315 314 315 318 316 314 313 311 317 317 316 323 322 325 327 325 327 323 326 332 332 335 337 338 338 338 338 338 339 340 340 340 338 336 334 335 335 334 334 334 335 334 334 333 333 334 334 334 333 333 332 332 331 329 328 326 323 319 315 313 313 315 316 314 311 311 314 318 321 320 318 318 320 321 322 322 321 321 321 321 321 321 321 322 322 323
333 334 323 323 330 323 320 321 315 315 315 315 315 315 316 316 315 314 314 316 316 316 318 320 330 332 326 326 326 330 333 333 336 336 338 338 337 338 338 339 339 339 339 339 337 335 336 335 335 334 335 335 335 334 333 333 333 334 334 334 333 333 332 331 329 328 327 325 321 317 315 313 313 314 312 310 310 313 317 319 319 318 317 318 319 319 320 320 321 321 321 321 321 321 322 322 322
328 328 321 330 335 322 316 319 317 316 315 315 314 313 313 315 314 312 316 316 315 319 320 319 329 340 331 326 327 331 332 332 335 336 337 337 337 338 338 338 338 339 339 339 338 336 336 335 335 335 335 336 337 335 334 333 333 333 334 333 333 332 332 331 330 328 327 327 323 319 317 314 313 313 310 309 309 312 316 319 319 318 317 318 318 318 319 320 320 321 321 320 321 321 321 322 322
319 324 327 328 325 319 316 316 317 316 314 314 315 314 313 313 312 313 316 317 315 318 321 318 325 343 332 325 328 329 331 331 332 334 336 337 337 337 338 338 338 339 339 339 339 337 336 336 336 336 336 336 337 337 335 334 333 333 333 332 331 331 332 331 330 328 327 327 324 321 319 315 312 312 309 307 307 309 313 317 317 317 317 318 318 318 319 319 319 319 320 320 320 321 321 321 321
315 317 319 319 317 315 315 315 315 314 313 314 315 314 313 312 312 315 317 318 319 316 319 319 322 339 332 327 328 327 329 330 330 332 333 336 337 337 338 337 338 338 338 338 338 338 337 337 337 336 336 337 337 337 336 335 333 332 332 332 331 331 331 331 331 329 327 327 326 323 320 316 312 310 308 306 305 306 310 313 315 316 316 318 318 318 318 318 317 318 319 320 320 320 320 320 320
318 315 313 315 315 314 314 314 314 313 313 315 315 313 313 314 313 315 316 317 320 317 317 315 318 328 329 327 327 328 328 328 329 330 331 334 334 336 337 336 337 336 337 337 337 338 337 336 336 336 336 337 337 337 337 336 334 333 332 332 331 331 331 331 330 328 327 327 327 325 321 318 315 310 307 305 304 304 307 309 313 316 316 317 317 317 317 316 316 316 318 319 320 320 319 319 319
322 318 314 314 314 314 314 314 314 314 315 315 313 313 314 317 315 312 313 317 318 315 309 307 315 324 327 327 328 328 327 327 328 330 331 332 333 334 335 335 336 336 336 336 336 336 336 336 335 335 336 336 337 337 337 337 335 334 333 332 331 330 330 330 330 328 327 327 328 326 323 321 318 312 307 304 303 303 305 307 310 314 316 316 316 316 315 315 315 316 318 319 319 319 319 318 318
321 317 315 314 314 314 314 315 317 316 315 313 313 315 315 315 312 312 315 317 318 315 309 312 320 325 326 327 328 327 327 327 327 329 330 330 331 332 333 333 333 334 335 336 337 336 336 337 336 335 334 335 337 337 337 337 336 336 335 334 332 330 330 330 330 328 327 327 328 327 324 323 321 315 309 304 303 304 304 306 308 311 313 314 315 315 314 314 314 316 317 318 319 318 318 317 317
318 317 316 315 314 315 314 315 317 317 315 313 315 315 314 313 311 314 320 318 319 319 319 325 328 328 326 326 327 327 327 327 327 327 328 329 329 330 331 331 332 333 333 334 335 335 335 336 337 337 335 335 337 338 338 338 337 336 336 335 334 331 330 329 329 328 327 327 327 327 326 326 324 320 313 306 303 304 304 306 307 309 310 311 312 313 313 313 314 315 317 318 318 317 317 316 316
315 316 316 316 315 315 316 315 315 317 315 315 317 316 315 314 312 317 320 315 317 324 325 325 330 334 328 326 326 325 325 326 327 326 326 327 327 328 328 329 330 331 332 333 334 334 334 334 335 336 336 335 336 337 337 338 337 337 336 336 335 333 331 330 329 329 328 327 327 327 327 326 326 325 320 312 306 304 304 306 307 309 310 310 310 311 311 312 313 315 316 317 317 317 316 315 315
313 316 316 316 317 314 315 315 315 316 314 314 317 315 314 314 314 319 318 312 314 326 328 323 329 332 326 326 325 323 323 324 325 325 325 325 325 326 326 327 328 329 330 331 332 333 334 334 333 334 336 335 334 336 337 337 336 336 337 336 335 334 333 332 330 330 329 328 327 327 327 327 327 326 325 321 315 309 308 308 308 309 309 310 310 310 311 312 313 315 315 316 316 316 315 314 314
314 316 317 316 317 315 313 314 315 315 314 315 316 313 314 315 316 319 317 312 313 321 328 325 324 324 322 324 324 322 322 322 323 323 324 324 324 325 325 326 326 327 328 329 330 331 332 333 333 333 333 333 333 334 336 337 334 335 336 336 336 335 334 332 331 332 331 330 329 327 328 327 327 327 326 323 319 314 313 315 312 310 310 310 310 310 310 311 312 314 314 315 315 315 314 313 312
314 316 319 316 314 314 313 314 315 314 314 315 313 312 318 320 316 316 315 313 313 317 324 325 322 320 318 319 321 322 318 318 320 322 324 324 324 325 324 324 324 325 325 327 329 329 329 330 331 332 332 332 333 333 335 336 334 334 334 335 335 336 335 333 332 333 332 331 330 329 328 328 327 327 326 323 319 315 313 316 315 314 313 312 312 311 311 311 311 313 313 313 313 313 313 311 311
315 312 319 318 312 314 316 316 316 313 313 313 311 312 320 322 316 312 313 314 315 317 320 320 321 319 317 317 318 319 316 315 317 319 322 323 324 324 324 324 324 325 324 325 326 327 328 328 329 331 331 332 333 333 334 334 335 334 333 333 333 334 335 333 332 333 333 332 331 330 330 329 328 327 327 324 320 317 315 315 315 316 316 315 313 312 311 310 311 312 312 312 311 310 310 309 309
322 313 317 317 310 316 319 317 317 314 313 313 311 313 319 320 316 312 311 313 314 318 319 317 318 318 316 316 315 316 314 312 313 316 318 319 321 322 323 323 324 324 325 325 326 327 328 328 330 331 330 332 332 332 333 334 334 334 332 332 333 333 333 334 333 333 333 332 331 331 330 329 329 328 327 324 320 318 318 317 316 316 316 316 315 312 310 310 310 310 310 311 310 308 307 307 306
326 319 320 319 313 315 317 316 316 316 315 314 311 314 320 319 318 316 312 312 313 316 320 318 317 316 315 314 313 313 312 311 311 311 314 316 317 319 320 321 322 323 324 325 326 327 328 328 329 331 330 330 330 330 332 333 333 333 332 332 333 333 333 334 334 334 333 332 332 332 330 329 329 327 326 325 322 319 318 318 318 318 317 316 315 313 311 311 310 309 308 308 309 307 305 304 303
322 319 321 321 318 316 317 317 316 315 315 315 313 314 320 320 320 322 316 312 314 316 319 319 318 315 314 313 313 312 312 313 311 308 311 314 315 317 317 318 320 321 323 324 326 328 329 328 328 330 330 330 329 329 330 332 332 332 332 332 333 333 334 333 332 333 333 333 333 333 331 330 330 328 326 325 324 320 316 317 318 318 317 315 313 312 310 309 308 309 307 305 306 306 303 302 301
318 317 316 317 317 316 318 319 315 314 314 316 317 316 319 320 318 321 317 311 315 318 318 318 317 315 314 312 312 312 312 313 310 308 309 311 313 315 316 317 319 321 322 324 326 328 329 329 328 329 330 330 329 328 329 331 330 330 330 331 332 333 333 333 332 332 332 332 332 332 332 331 331 330 328 327 325 322 318 317 317 316 317 315 312 311 308 306 306 306 306 303 301 301 301 300 298
318 319 322 321 320 318 320 319 314 314 317 317 319 318 320 321 318 321 317 310 312 317 317 317 316 315 314 313 312 311 312 312 309 307 309 310 311 314 315 317 318 320 322 323 326 328 328 329 328 329 329 329 328 328 329 329 329 328 327 328 328 329 330 331 331 332 332 331 331 330 331 332 331 329 329 328 327 326 323 320 319 317 316 314 313 311 308 306 305 303 303 301 298 296 295 294 293
317 320 326 324 321 320 318 316 314 314 316 317 318 319 320 320 318 319 315 309 311 315 316 316 315 314 314 314 313 312 312 311 307 307 309 310 310 311 314 316 318 320 321 323 325 327 328 328 328 329 329 328 328 327 328 328 327 326 325 326 326 326 327 327 328 329 330 331 331 331 331 332 330 328 327 326 324 324 323 321 320 318 315 314 314 313 309 305 303 301 300 299 297 294 292 290 290
316 319 324 321 320 321 315 314 316 314 313 316 317 318 318 319 317 315 313 311 313 316 316 316 315 313 312 313 313 312 311 310 309 308 308 310 311 310 313 316 318 320 321 323 324 325 327 328 328 328 328 328 327 327 327 327 326 326 325 325 325 325 325 325 325 326 328 329 330 330 331 330 330 329 328 326 322 320 320 320 319 319 317 314 313 310 307 303 299 299 300 297 295 294 292 289 289
319 319 321 320 319 319 314 314 316 314 313 316 320 321 320 319 316 314 313 313 313 312 313 313 313 312 311 311 311 311 312 313 312 311 308 309 311 311 313 316 318 319 321 322 323 325 326 327 328 328 328 327 327 326 326 325 325 324 324 324 323 323 323 323 323 324 326 327 328 329 329 329 327 328 329 328 324 320 319 319 318 317 316 314 311 308 305 301 298 298 300 298 294 292 291 290 290
321 321 320 319 318 319 317 315 315 314 313 316 320 320 319 319 318 319 315 311 312 313 313 312 311 311 310 310 311 311 313 314 314 313 309 307 309 312 313 316 318 319 320 322 323 324 325 326 327 327 327 326 325 325 324 324 324 323 323 322 321 321 321 321 321 322 323 324 325 326 327 327 327 327 328 328 325 321 321 320 319 317 314 313 311 308 304 300 299 299 298 297 294 291 290 289 290
320 328 332 325 320 321 319 315 315 315 313 316 317 315 324 329 327 331 324 311 312 314 313 313 312 311 310 310 311 311 313 313 313 315 313 307 307 311 313 315 317 319 319 321 323 324 325 326 326 326 326 325 324 324 323 323 322 321 321 320 319 318 318 318 319 320 321 321 323 323 324 325 326 326 326 326 325 323 322 321 320 316 314 312 310 309 305 301 301 300 298 296 295 294 291 289 290
315 326 335 331 326 324 320 317 318 317 313 314 312 312 331 340 330 330 327 317 317 313 311 315 314 311 313 313 313 314 314 312 311 313 313 308 307 310 313 315 316 318 319 320 322 323 324 325 325 325 324 324 324 323 323 322 321 320 319 318 317 317 316 317 317 318 319 319 320 321 322 323 324 324 323 323 324 324 323 321 318 316 315 313 310 308 306 302 300 299 298 297 296 296 294 290 289
312 316 322 326 327 325 323 319 316 316 312 310 312 314 322 327 323 324 324 321 323 317 315 320 314 309 316 320 320 322 320 314 311 312 312 308 307 309 312 314 316 317 319 320 321 322 323 323 323 323 323 323 323 322 322 321 320 319 318 318 317 316 316 316 316 316 316 317 318 319 320 320 321 322 321 320 321 322 322 320 318 317 316 314 311 307 305 303 302 300 298 297 296 295 294 291 289
312 315 320 325 327 326 326 323 320 320 314 314 323 322 314 316 317 319 320 321 325 322 321 324 315 310 316 321 322 325 325 320 315 317 318 312 307 309 312 313 315 317 318 319 320 320 321 322 321 322 321 321 321 321 320 319 319 318 317 317 316 315 315 314 314 314 314 314 314 315 316 317 317 317 316 317 319 320 320 319 317 315 313 312 311 307 305 304 302 300 297 296 295 293 294 293 290
315 315 321 325 327 329 332 334 331 321 311 316 326 317 311 322 325 321 317 316 321 324 322 321 318 315 316 318 322 325 325 321 319 323 322 311 306 309 312 313 314 316 317 318 319 320 320 320 320 320 320 320 320 319 319 319 318 317 317 316 315 314 314 313 313 312 311 311 310 311 312 313 314 313 314 315 317 318 319 319 317 315 314 313 311 309 307 304 301 300 298 296 294 293 293 293 292
316 313 319 321 324 328 330 332 327 314 310 321 325 314 311 321 329 325 315 314 320 323 320 320 319 320 322 326 331 331 326 322 323 323 314 307 308 310 311 312 314 315 316 317 318 318 318 319 319 319 319 319 319 319 318 318 317 316 316 315 314 314 313 312 311 310 310 309 309 309 310 312 314 314 315 316 316 317 318 318 317 317 317 315 314 311 308 305 302 301 299 297 296 294 292 293 294
314 319 321 319 324 330 331 331 322 309 316 326 322 317 313 313 324 327 316 317 321 320 323 325 322 322 330 338 337 332 330 326 324 321 310 305 308 310 310 312 313 314 315 316 316 317 317 318 318 318 319 318 318 318 317 317 316 315 315 314 314 313 312 311 310 310 309 308 308 308 310 312 314 315 316 316 316 315 316 317 317 317 317 315 314 311 308 306 305 303 299 296 295 294 293 293 294
318 324 323 317 322 327 330 331 319 310 321 324 317 316 314 311 322 327 322 321 318 317 322 327 323 320 327 338 337 331 330 328 326 324 315 308 308 309 310 312 312 313 314 314 316 316 316 317 317 317 317 317 317 317 316 316 315 315 314 314 313 312 312 311 310 310 308 308 307 308 309 311 313 314 315 315 315 314 315 315 315 315 315 314 313 311 309 307 305 301 298 295 294 293 294 294 292
319 319 321 319 322 320 323 330 321 316 321 316 314 317 313 314 319 320 323 323 320 318 319 322 321 318 322 331 336 335 331 331 332 327 320 315 310 307 308 311 311 312 313 314 315 315 315 316 316 316 316 316 316 315 315 315 314 314 313 313 312 312 311 310 310 309 309 308 308 308 308 309 311 312 313 314 314 314 314 313 313 313 313 313 313 312 309 306 303 300 298 297 295 295 296 294 293
315 315 318 320 323 316 317 325 318 317 321 313 312 315 314 318 317 316 319 316 316 316 314 317 318 318 323 326 330 335 334 333 333 330 330 323 309 304 307 310 311 312 313 314 314 314 314 314 314 315 315 315 315 314 314 314 314 313 313 312 312 311 310 310 309 309 309 308 308 308 308 308 309 311 312 313 314 314 313 312 312 313 313 313 313 311 309 306 303 301 300 299 298 298 297 294 294
314 315 314 317 327 324 321 324 320 322 325 317 312 315 321 321 312 313 316 313 314 316 313 313 315 318 323 326 331 337 338 336 331 332 339 324 304 303 308 308 310 312 312 313 313 313 313 313 314 314 314 314 314 314 314 314 313 313 312 312 311 311 310 310 309 309 309 308 308 308 308 308 308 310 312 312 314 314 313 312 311 311 312 312 311 310 308 306 304 302 302 301 300 299 296 294 294
315 313 310 312 322 326 320 317 320 321 319 318 315 318 326 320 311 313 312 311 315 317 314 313 317 322 322 329 342 345 343 342 333 335 348 327 303 304 308 307 310 311 311 312 312 313 313 313 313 313 313 314 313 313 313 313 313 312 312 312 311 311 310 309 309 309 309 308 308 308 308 308 308 309 311 311 313 314 314 313 312 311 311 311 310 309 307 306 304 303 302 300 299 298 296 295 294
315 312 314 318 318 326 321 311 312 313 311 317 317 318 323 316 313 319 315 314 317 317 315 314 318 322 320 325 338 343 346 346 334 333 342 325 305 304 307 308 310 310 310 312 312 313 313 313 313 313 313 313 313 313 313 312 313 312 312 312 311 311 310 310 309 309 309 308 308 308 307 307 308 309 310 310 311 312 313 313 312 311 311 310 309 308 307 306 305 303 302 300 299 298 296 295 294
317 317 318 315 312 321 322 314 319 319 316 320 317 316 320 316 316 320 315 314 317 317 317 316 318 320 321 324 326 332 341 341 331 325 324 313 302 304 307 308 310 310 310 312 312 313 313 312 313 313 313 313 313 313 313 312 312 312 312 311 311 311 310 309 309 308 308 308 308 308 307 307 308 308 309 310 310 310 311 311 310 310 310 309 309 308 308 307 305 303 302 300 299 298 296 296 295
317 319 316 315 317 319 317 314 321 320 316 323 322 315 314 314 319 321 315 314 318 317 316 316 317 318 321 319 316 326 337 335 333 332 332 319 304 303 307 308 310 310 310 312 312 312 312 312 313 313 313 313 313 313 312 312 312 312 312 311 311 311 310 309 309 308 308 308 308 307 307 307 307 308 308 309 310 310 310 309 309 308 308 309 308 308 307 306 305 304 303 301 300 298 297 297 296
313 312 310 317 325 322 316 315 318 317 315 320 324 321 318 317 318 319 314 315 318 316 315 318 320 320 320 314 312 322 330 333 334 337 343 328 306 302 307 308 310 310 310 312 311 312 312 312 312 313 313 313 312 313 312 312 312 312 311 311 311 310 310 309 309 308 308 307 307 307 307 306 306 307 308 308 309 310 310 309 309 308 307 307 308 308 307 306 305 304 304 302 301 299 298 297 297
315 315 313 316 318 316 317 317 316 320 322 321 320 320 325 323 317 317 315 315 318 319 320 324 323 321 322 319 318 322 328 335 335 334 341 325 304 304 308 306 308 309 309 310 310 311 312 311 312 312 312 312 312 312 313 312 312 312 311 311 311 310 310 309 308 308 308 307 307 307 307 306 306 307 307 308 308 309 310 310 309 308 307 307 307 307 307 307 306 305 304 303 302 300 298 298 297
315 316 316 316 316 316 317 315 314 315 318 322 319 315 322 326 317 316 316 313 318 321 319 322 326 326 327 328 327 328 331 336 335 337 340 318 302 304 306 305 308 308 308 308 309 310 310 310 311 311 311 312 312 312 312 312 312 312 312 311 311 310 309 309 308 308 307 307 307 306 306 306 306 306 307 307 308 308 308 309 308 308 308 307 307 306 307 307 306 306 305 303 302 301 300 299 298
Wind_Speed
3 0 3 2 0 2 4 5 2 2 4 2 0 2 2 2 2 2 3 1 1 0 1 2 3 4 3 5 7 6 4 4 5 4 3 4 11 22 17 16 18 19 21 20 18 16 15 13 14 15 13 14 13 12 12 11 11 12 13 14 14 13 14 15 16 15 15 15 16 16 17 17 16 15 15 15 17 19 21 21 21 21 21 21 21 20 21 21 22 22 22 21 21 21 21 21 22
1 1 4 4 2 2 1 3 3 3 5 1 2 3 2 1 2 5 6 3 3 2 2 5 7 6 5 7 7 4 3 2 3 3 1 4 15 19 14 17 19 20 22 20 18 16 15 13 14 14 14 14 13 12 12 11 11 11 12 13 13 13 13 15 15 15 14 15 16 16 17 17 15 15 16 16 17 19 20 20 20 20 20 20 20 20 21 21 21 21 21 21 21 21 21 22 22
1 4 5 5 4 4 2 4 2 1 4 2 4 3 1 1 5 6 6 5 6 6 5 4 5 4 5 6 3 3 1 2 3 1 2 10 14 15 15 18 19 19 22 20 18 17 15 14 14 14 14 15 14 13 12 11 11 11 11 12 12 12 12 13 15 15 14 15 16 16 16 15 14 14 15 16 18 18 18 19 20 19 19 19 20 20 21 21 21 21 21 21 21 21 21 22 22
3 4 4 4 3 4 4 4 2 4 4 4 3 4 2 4 7 5 5 5 6 4 2 2 4 2 3 5 1 2 2 0 2 1 4 10 12 16 18 19 19 18 21 19 18 17 16 15 14 14 15 15 14 13 12 11 11 10 10 11 11 11 12 12 14 14 15 15 16 15 15 13 13 13 14 16 18 18 18 19 19 18 18 18 19 20 20 19 20 20 21 21 21 21 21 21 21
3 4 3 3 2 2 3 3 3 4 4 5 2 5 5 6 7 6 3 3 4 3 2 3 3 2 3 4 1 2 2 2 2 1 6 10 14 19 18 20 19 18 20 19 17 17 16 16 15 15 15 15 14 13 12 11 11 10 10 10 10 11 11 12 13 14 14 15 15 14 13 12 13 13 13 14 16 17 19 20 19 18 18 19 19 19 19 19 19 20 21 21 21 21 20 20 20
4 5 6 5 3 1 3 1 2 2 5 5 4 5 5 6 7 6 3 2 3 2 3 3 3 2 3 1 0 3 2 2 3 4 9 12 16 20 20 21 19 18 20 19 17 16 16 16 15 14 14 15 14 13 12 11 10 10 9 9 9 10 11 11 12 13 13 15 14 14 12 10 12 12 12 13 14 17 19 19 19 19 18 18 18 18 19 19 19 19 19 20 20 20 20 19 19
4 3 5 6 3 2 3 3 4 3 3 5 4 5 7 7 5 6 5 2 0 1 2 2 4 6 2 2 1 0 2 1 4 6 11 15 20 21 20 20 19 19 19 18 17 16 15 15 15 14 14 15 14 13 12 11 10 10 9 9 9 9 10 11 11 12 13 14 13 14 13 10 11 12 12 13 14 16 18 17 17 19 18 18 18 18 18 18 18 18 18 19 19 19 19 19 20
3 1 1 4 2 3 4 2 3 3 1 3 4 5 8 7 5 6 5 3 2 1 2 2 2 6 0 2 2 2 2 4 5 8 14 18 22 20 19 20 20 20 18 18 17 16 15 15 15 14 14 15 14 13 12 11 10 10 9 9 9 9 9 10 10 11 12 13 12 14 14 11 11 12 13 14 14 14 16 15 15 17 19 18 18 17 17 17 17 18 18 19 19 20 20 21 21
4 2 1 3 2 3 3 2 1 2 3 4 3 3 4 5 5 5 4 2 2 3 2 4 1 3 2 3 0 4 2 5 7 11 16 21 22 20 19 19 20 21 19 18 17 16 16 16 15 15 14 14 14 13 12 12 11 11 10 9 9 9 9 9 10 10 11 12 13 14 14 13 11 11 12 13 14 14 14 14 14 17 19 19 18 17 17 17 17 17 18 19 19 20 21 23 23
5 3 2 2 3 3 3 0 1 2 3 3 3 4 4 4 4 3 4 3 2 5 1 2 3 3 5 3 1 2 1 6 12 16 19 21 21 19 19 18 19 20 20 19 18 17 17 17 16 15 14 14 14 13 12 12 12 11 10 9 9 9 9 9 9 10 11 12 12 14 14 14 13 11 11 12 13 12 12 12 14 17 19 19 18 17 17 17 17 17 17 18 19 20 20 22 24
3 3 3 4 3 2 2 3 3 3 3 3 2 4 4 4 5 2 3 4 1 4 3 1 4 4 5 1 2 1 3 8 16 21 20 20 20 19 18 17 18 18 20 20 18 18 17 17 16 16 15 15 15 14 13 12 12 12 10 9 8 8 8 8 9 9 10 12 12 13 14 15 14 12 11 12 13 12 12 13 15 18 19 19 19 18 17 17 17 17 17 17 19 19 19 21 23
2 2 5 4 3 3 4 4 4 3 4 3 2 4 3 4 4 3 4 5 1 3 3 2 3 5 4 1 3 2 4 11 17 21 19 21 21 19 18 17 17 17 19 19 19 18 17 17 17 16 15 16 16 15 14 13 13 12 10 9 8 8 8 8 8 9 10 11 11 12 13 15 15 12 11 12 13 13 13 14 17 18 19 20 19 17 17 17 17 17 17 17 18 18 18 20 21
3 2 5 2 3 3 4 5 3 0 3 3 4 3 5 4 4 7 7 5 3 4 2 5 6 6 3 2 2 3 6 14 18 19 20 22 22 21 19 18 17 17 17 19 19 19 18 18 17 17 16 16 16 16 15 14 13 12 11 10 9 8 8 8 8 9 9 10 11 12 13 14 14 12 11 13 14 14 15 16 18 19 19 20 19 17 17 17 17 17 17 17 17 18 18 19 21
3 3 5 2 1 4 5 3 2 3 3 6 3 2 4 3 4 6 8 6 4 4 1 3 7 5 2 1 2 3 9 17 18 19 20 21 22 22 20 19 17 17 17 19 20 19 19 19 18 18 17 17 17 17 16 15 14 13 12 11 9 8 8 8 8 8 8 9 11 12 14 14 14 12 12 15 16 17 18 18 19 19 18 19 18 17 17 17 17 17 17 16 16 17 18 18 21
3 3 4 3 2 2 3 2 3 5 4 5 4 5 4 2 3 5 5 7 5 4 1 2 3 2 3 4 3 6 16 21 19 19 19 19 20 21 21 20 18 18 17 19 21 20 20 19 19 19 19 18 18 17 17 16 15 14 13 12 10 9 8 8 8 8 8 9 10 12 13 13 13 11 12 15 18 19 20 21 20 18 18 19 18 17 17 17 17 17 17 16 17 19 18 18 20
3 4 5 3 2 2 4 2 4 3 5 6 3 5 5 3 2 4 4 6 4 1 2 0 1 1 4 6 2 8 23 23 20 20 19 18 18 19 20 20 20 19 19 20 22 21 20 20 20 20 20 19 18 17 17 17 16 15 13 12 11 10 9 9 9 9 8 8 9 11 11 12 11 10 10 13 17 19 21 22 20 18 18 19 18 16 16 17 17 17 16 17 18 19 19 18 21
3 4 4 2 3 3 4 4 5 4 5 5 3 4 7 2 2 2 1 5 5 2 4 1 2 3 3 3 5 11 27 23 21 20 18 18 17 19 20 21 21 21 20 21 23 22 21 21 20 20 20 19 18 17 17 17 16 15 14 13 12 11 10 10 10 9 9 9 9 10 10 11 11 10 10 12 16 20 22 22 19 18 19 19 19 17 16 17 17 17 16 17 18 19 19 20 23
4 3 3 1 4 5 5 8 7 4 6 8 6 6 8 5 2 2 2 6 4 3 3 3 3 3 3 6 0 20 28 24 23 21 20 19 18 19 21 22 23 23 23 22 24 24 23 22 21 21 20 20 18 18 18 17 17 16 16 15 13 12 11 11 11 10 10 10 10 10 10 11 11 11 11 13 16 20 22 21 18 18 18 20 21 18 17 17 16 16 16 17 18 20 21 23 25
3 3 3 3 5 5 5 8 7 3 5 8 6 5 6 7 5 3 3 1 2 3 1 5 4 4 5 2 12 25 26 24 24 22 21 21 21 22 22 22 23 24 25 24 26 25 24 23 22 22 21 20 19 18 18 18 18 17 17 16 15 14 13 12 12 11 11 10 10 10 11 11 11 11 12 14 17 20 22 21 19 19 19 21 21 19 17 17 17 17 18 18 19 21 23 25 27
2 4 2 5 6 4 4 6 7 5 4 8 6 4 4 5 4 2 4 4 2 5 4 1 3 5 1 5 14 23 23 22 22 22 21 21 22 23 22 23 24 25 26 26 26 26 25 24 23 22 22 21 20 19 19 19 19 18 18 18 16 15 14 14 13 12 12 11 11 11 11 12 12 12 13 15 18 20 22 21 20 20 21 21 20 19 18 18 18 18 18 18 20 23 25 27 27
2 4 3 6 3 2 3 6 6 5 5 8 7 4 3 3 2 2 7 7 2 6 7 7 8 7 6 6 11 19 20 19 19 20 21 20 21 23 24 25 25 25 26 25 25 27 27 25 24 23 22 22 21 21 21 20 20 20 20 19 18 17 16 16 14 14 13 11 12 12 12 13 13 13 15 16 18 20 21 21 20 20 21 21 19 18 19 18 18 18 18 19 21 24 26 27 27
2 0 4 5 3 1 2 4 4 4 6 6 7 6 5 3 2 3 10 8 6 7 8 10 10 11 13 12 13 16 16 17 18 19 21 21 21 22 23 25 25 23 24 25 26 28 28 26 25 24 24 23 23 23 22 22 21 21 22 21 20 19 18 17 17 15 15 13 12 13 14 14 14 14 16 17 18 19 20 20 19 19 21 21 19 19 19 18 17 18 18 20 23 25 26 27 26
3 2 2 2 3 1 2 1 1 5 9 8 7 5 4 5 1 3 8 8 7 6 7 8 8 11 16 15 15 14 13 16 19 22 24 25 25 25 26 26 26 25 26 28 28 28 28 27 26 26 26 25 24 24 24 24 22 22 23 22 22 21 20 19 19 18 16 15 13 14 15 15 15 15 16 17 18 19 19 19 19 19 20 20 19 19 19 18 17 17 19 21 24 25 26 26 26
5 2 2 1 2 0 4 2 1 6 9 7 5 4 4 6 3 1 5 9 8 5 3 5 10 13 15 13 13 14 16 19 22 27 28 29 30 30 28 27 28 26 26 28 29 29 29 29 28 27 27 26 26 25 25 25 24 24 23 23 23 22 22 21 20 19 18 17 15 15 15 15 15 15 16 18 19 19 19 19 19 20 21 20 20 19 19 19 18 18 19 22 24 26 26 26 26
4 3 2 1 1 3 5 4 5 6 5 2 5 4 2 4 3 2 6 11 8 3 2 6 12 13 12 11 12 13 14 18 20 23 25 27 28 26 25 26 27 27 28 29 30 31 30 29 28 28 27 27 28 28 28 27 26 27 25 24 25 23 22 22 21 21 20 19 17 17 16 15 15 16 16 18 20 20 20 20 20 21 21 21 20 19 18 19 19 19 20 23 25 26 26 26 26
2 4 2 2 2 5 5 5 6 5 2 3 6 1 3 2 1 2 9 9 5 3 6 7 10 10 10 10 12 13 12 16 20 21 24 25 23 23 25 26 28 30 32 31 31 33 33 30 29 29 28 27 28 28 29 28 28 29 28 26 25 24 22 22 22 22 21 21 20 19 18 16 14 15 16 18 20 21 21 21 20 21 21 21 20 20 19 19 19 21 22 24 26 26 26 26 26
3 6 5 5 2 5 4 4 4 4 2 3 6 2 5 2 2 4 7 4 5 6 6 6 8 10 11 9 11 14 14 18 22 21 20 20 22 26 27 28 31 33 33 33 34 35 34 34 33 31 29 28 28 27 29 29 27 29 30 27 25 24 23 21 22 23 23 23 23 22 21 19 16 15 16 17 19 21 21 21 21 21 21 21 20 20 20 19 20 21 23 25 26 27 27 27 26
6 8 6 7 5 4 5 4 3 3 2 2 6 2 5 4 1 6 7 3 4 7 7 6 7 8 9 10 9 11 14 19 21 18 18 22 27 30 31 34 35 34 34 36 36 34 35 35 35 33 31 30 29 28 30 30 28 29 29 28 27 26 24 22 22 23 25 25 24 24 24 22 20 18 18 19 20 21 21 21 21 21 21 21 20 20 20 20 21 22 24 25 26 27 27 27 26
5 6 6 6 7 5 3 2 3 2 2 1 3 1 4 2 5 8 6 3 2 6 7 6 7 6 6 8 7 8 12 15 16 19 24 28 30 30 34 38 36 35 36 36 34 34 35 35 35 35 33 32 31 31 31 31 29 29 29 29 28 27 25 24 25 26 26 26 25 27 27 26 25 23 23 24 23 24 23 22 22 22 22 21 21 21 21 22 22 24 25 26 26 27 28 27 26
2 4 5 2 6 3 3 2 3 2 1 3 2 2 6 8 10 7 4 2 4 4 6 6 6 6 5 6 6 7 11 13 17 25 30 30 29 29 32 35 33 34 35 32 32 34 34 34 33 34 35 35 33 32 32 31 30 29 29 29 29 29 27 26 28 29 28 27 26 27 28 28 28 27 26 26 26 27 27 26 25 24 23 23 22 22 23 24 25 26 27 27 27 27 28 27 26
2 3 3 3 2 3 5 3 0 4 0 4 6 3 6 8 8 5 6 1 6 7 8 7 6 6 5 6 6 8 10 15 22 27 29 30 30 29 31 32 30 32 32 32 34 34 33 32 32 33 35 36 35 34 33 33 32 30 29 29 30 30 29 29 29 29 30 30 28 27 30 31 31 30 28 29 30 30 29 29 28 27 25 25 24 24 25 26 26 27 28 28 28 27 28 27 26
3 3 1 2 3 4 7 3 3 5 0 5 7 3 7 7 7 6 5 2 7 8 8 7 7 7 7 6 7 8 9 15 21 25 28 29 30 30 31 31 30 32 33 33 33 32 32 32 32 33 33 35 35 35 34 33 32 31 29 28 28 28 29 31 30 29 32 33 31 31 33 34 33 32 32 32 32 32 31 31 31 29 28 27 26 26 27 27 28 28 28 29 29 28 28 27 26
4 3 2 2 3 2 4 2 1 2 1 3 3 2 4 4 6 7 4 3 6 6 8 8 8 8 8 6 7 7 8 10 14 22 28 30 31 33 33 32 32 32 32 33 32 32 32 32 32 33 33 34 33 33 34 33 32 31 30 28 28 27 28 29 28 28 30 31 31 32 34 35 33 33 34 33 32 33 34 33 33 31 30 28 28 28 29 29 29 30 29 29 29 30 29 28 27
3 2 2 3 3 3 2 2 3 2 3 0 2 1 7 7 7 8 6 1 4 6 8 8 7 8 7 7 7 7 8 8 10 19 27 30 32 33 33 33 32 31 31 32 33 32 32 31 32 33 34 33 32 32 33 33 31 30 29 28 28 29 28 28 27 27 28 29 30 31 32 32 31 33 34 34 33 35 35 34 34 33 31 30 30 31 30 30 30 31 31 30 30 30 31 30 29
6 3 3 2 2 3 3 3 3 2 3 2 1 2 10 12 10 9 7 1 2 7 7 7 8 7 8 7 7 8 8 9 13 21 26 26 30 32 32 32 31 31 31 31 32 32 32 31 32 33 33 33 32 32 32 32 31 29 29 28 29 29 29 29 29 29 29 30 30 30 30 31 33 36 37 36 35 35 35 35 34 34 33 32 32 31 31 32 31 31 32 31 30 30 30 31 31
9 6 5 5 4 4 4 4 4 2 4 3 4 4 8 10 10 10 8 1 2 8 7 7 8 7 8 7 7 8 9 11 15 20 22 23 26 30 31 31 30 30 30 30 31 31 32 32 32 33 34 33 32 31 31 31 29 28 27 28 28 29 29 29 29 30 29 29 30 30 31 33 35 38 39 38 37 37 38 38 37 36 35 35 34 33 34 35 33 33 33 33 32 29 29 30 32
7 6 5 4 4 3 3 2 4 1 4 3 3 4 8 10 11 12 9 3 4 9 8 9 9 8 9 9 10 10 10 11 12 14 18 21 23 26 27 28 27 27 27 29 31 32 33 33 33 34 34 34 33 32 32 32 30 29 27 28 29 29 29 29 29 29 29 29 30 30 31 32 31 33 37 38 37 40 42 41 40 39 38 37 37 36 36 35 34 34 33 33 33 31 30 30 32
6 6 5 2 2 3 2 1 3 3 2 2 2 3 9 11 11 11 9 6 8 10 10 11 12 11 10 10 12 11 8 9 9 11 15 18 20 22 24 26 26 28 28 30 32 33 33 33 34 34 34 34 34 34 33 33 32 31 30 30 30 30 30 30 29 29 30 30 31 31 31 32 31 29 31 35 37 39 41 42 42 41 41 40 38 36 35 34 35 36 35 34 32 32 33 32 34
5 4 6 3 2 2 2 1 3 4 1 3 3 4 9 11 10 11 10 9 9 9 10 11 10 11 11 10 11 9 8 9 9 10 13 16 19 20 22 24 27 29 29 30 31 31 32 33 34 34 34 34 34 34 34 33 32 31 30 29 28 29 29 29 29 29 30 31 31 31 30 31 32 31 30 33 38 40 41 41 41 41 42 41 39 38 37 36 36 36 38 37 33 32 31 35 38
4 4 6 3 2 2 1 2 2 4 2 1 1 3 7 8 7 10 10 8 7 7 8 10 9 11 13 10 8 7 9 10 10 9 11 13 15 17 21 24 27 27 27 28 30 31 32 34 34 34 34 34 34 33 33 32 30 29 28 27 26 26 26 26 27 28 30 31 31 31 31 29 29 30 30 32 36 40 42 40 39 41 43 42 40 39 39 39 40 39 38 38 37 35 31 35 38
1 3 6 4 4 4 3 2 1 3 4 3 3 4 6 5 5 8 7 4 5 5 6 9 9 10 11 8 7 8 9 10 10 9 9 10 13 17 21 23 24 26 27 29 32 33 34 34 34 34 33 33 33 33 32 31 30 28 27 25 23 23 23 23 25 29 30 31 32 32 32 31 29 28 27 29 34 37 39 40 40 42 43 42 41 40 40 41 41 41 42 41 41 40 35 36 37
1 3 6 7 7 6 3 3 5 4 4 4 4 3 6 5 4 8 5 6 7 4 4 9 10 8 8 7 8 9 10 10 9 9 9 10 13 15 18 20 22 25 29 31 32 33 33 33 33 32 32 32 32 32 31 31 30 30 29 27 25 23 24 26 28 31 31 32 33 33 32 32 32 31 27 27 32 36 38 40 41 42 41 42 41 40 41 41 41 42 44 44 43 41 37 37 37
2 3 5 7 9 9 7 5 4 2 2 3 3 2 4 7 5 8 5 7 11 8 8 12 8 4 5 7 7 8 9 8 6 7 8 9 12 13 16 20 23 27 29 29 29 30 31 32 32 32 32 31 31 31 31 31 31 31 30 29 29 28 29 30 31 31 31 31 32 33 33 33 35 36 33 29 29 34 37 39 40 41 42 43 42 41 41 42 44 44 44 45 43 41 38 38 40
3 2 6 8 9 8 7 6 4 2 3 4 4 4 2 6 6 6 5 6 10 10 11 13 6 2 6 7 8 9 8 6 5 6 7 8 12 16 18 22 24 26 26 26 28 29 30 30 30 31 31 31 31 31 31 31 31 31 30 29 30 31 31 30 29 28 28 29 30 31 32 33 33 34 35 32 29 31 35 38 40 41 42 43 42 41 42 42 43 43 43 42 40 40 41 41 42
3 3 7 7 7 7 6 6 4 1 1 4 4 2 2 6 7 5 5 4 8 10 11 11 8 7 7 8 8 8 7 6 5 6 6 8 12 16 18 19 21 23 24 26 28 28 28 28 28 29 29 30 30 30 30 31 31 30 30 30 30 31 30 29 27 26 26 26 27 28 28 29 29 29 31 32 30 30 32 35 38 40 40 41 41 41 41 41 41 42 43 43 42 42 43 41 40
3 6 8 7 7 6 5 5 4 3 1 5 5 2 2 5 7 5 2 2 7 10 9 8 8 9 8 7 7 6 5 5 5 5 6 8 10 12 14 15 18 21 22 24 25 25 26 26 27 27 28 29 29 29 30 30 30 29 29 30 31 30 29 28 27 26 25 24 25 26 26 27 28 29 30 31 31 31 32 34 36 38 40 40 41 41 42 42 42 43 45 46 46 44 43 41 40
8 6 7 7 7 6 4 3 4 4 2 7 6 2 1 3 6 5 4 4 6 5 6 7 7 8 7 6 6 5 5 4 4 4 4 5 6 8 11 14 16 18 20 21 22 24 25 25 26 27 28 28 29 29 29 29 29 29 30 30 31 30 29 27 27 26 25 24 25 25 26 27 28 29 30 31 32 31 32 34 35 37 38 39 41 42 43 43 43 44 44 44 45 44 43 42 39
7 5 5 5 4 5 4 5 4 1 5 6 4 1 2 4 6 5 5 7 6 6 5 7 7 8 8 6 5 5 5 4 4 3 2 2 4 7 11 13 14 17 19 21 22 23 24 25 26 27 27 28 28 28 28 28 29 30 30 31 30 30 29 28 28 27 26 25 25 25 26 27 29 29 29 30 31 31 32 33 35 36 37 39 40 41 43 43 43 43 42 43 44 43 43 40 39
5 5 6 5 2 3 2 3 1 3 6 3 2 1 2 6 8 8 10 10 8 8 7 7 7 8 8 7 6 5 4 5 4 3 2 3 4 7 11 13 15 18 20 22 23 23 24 25 26 27 28 28 28 28 28 28 29 30 30 30 30 29 29 29 28 28 26 25 25 26 26 28 30 31 31 31 31 31 32 33 34 35 37 38 39 40 41 42 42 41 42 44 44 45 44 43 43
4 6 5 5 3 2 2 4 2 4 4 2 2 2 3 5 5 10 14 10 5 7 7 7 7 8 8 7 6 6 6 5 5 4 3 4 5 7 11 14 16 19 21 22 23 23 24 24 25 27 27 27 27 28 28 29 30 30 30 30 30 29 29 29 29 28 26 25 25 26 27 28 30 32 33 33 32 31 32 33 34 35 37 38 38 40 41 41 42 42 43 45 46 46 46 44 44
2 3 5 6 5 5 4 4 3 4 3 3 3 2 3 3 2 7 11 7 6 6 6 5 7 8 7 6 6 5 6 5 5 6 5 4 5 7 10 13 16 19 20 21 22 23 23 24 25 26 26 26 27 27 28 29 30 30 30 30 29 29 29 29 29 28 27 26 26 26 28 28 30 33 33 33 33 32 33 33 34 35 36 37 38 39 40 41 41 42 43 44 46 45 43 43 44
1 2 5 3 5 5 3 3 5 3 1 2 2 3 4 4 6 8 6 6 8 6 4 4 6 7 5 5 6 5 5 5 4 5 7 6 6 9 11 13 15 17 18 20 21 22 24 24 25 26 26 26 27 27 28 29 29 29 29 30 30 29 29 29 29 29 28 28 27 27 28 28 30 32 33 33 33 34 34 34 34 35 36 36 37 37 38 39 40 41 42 42 43 43 42 43 44
2 2 3 5 4 7 6 2 0 3 1 3 1 4 5 4 7 9 6 7 9 7 5 5 6 6 5 6 6 5 5 5 5 5 7 7 8 11 13 13 14 17 18 19 21 22 23 24 24 25 25 26 27 28 28 28 28 29 30 30 30 29 30 30 30 29 29 28 28 28 28 29 30 32 34 33 33 34 35 35 35 36 36 36 36 37 38 39 39 40 41 41 42 41 40 41 42
5 3 5 4 2 5 5 2 3 4 2 4 1 4 5 2 3 7 6 6 10 9 8 8 7 6 6 7 6 6 6 6 5 5 7 8 10 13 15 15 16 18 18 18 19 20 21 23 23 24 25 27 28 27 27 28 28 29 30 29 29 29 30 30 30 29 29 29 29 29 28 29 31 32 33 33 32 33 34 35 36 36 37 37 37 38 38 39 39 39 40 41 41 40 39 41 42
4 4 3 4 3 2 2 3 2 1 2 4 4 3 3 4 5 4 2 6 9 8 7 7 7 7 6 4 2 5 6 5 6 6 6 7 10 14 16 17 19 19 18 17 17 18 21 23 24 24 25 26 26 26 26 27 28 29 29 29 29 29 29 29 29 29 29 30 31 30 29 30 32 33 33 33 33 33 33 34 36 37 37 37 37 38 38 39 40 40 41 41 40 40 40 42 43
3 2 2 3 3 4 3 3 4 4 3 3 4 4 3 6 6 5 7 8 7 4 2 5 8 9 6 2 3 5 6 5 6 6 6 7 10 14 17 19 20 18 17 17 17 18 21 23 25 25 26 26 26 27 27 28 28 28 29 29 29 30 29 29 28 28 29 31 31 31 30 30 31 33 33 33 33 33 33 34 35 37 38 39 39 38 38 38 39 41 42 42 42 41 41 42 43
3 3 4 2 1 2 2 1 2 4 4 3 2 4 6 6 4 8 10 9 8 6 4 6 8 7 7 5 5 6 5 6 7 6 6 6 8 12 16 19 17 15 15 16 18 20 21 23 25 26 26 27 28 28 28 29 29 28 29 30 30 30 29 29 29 29 30 31 32 31 31 30 31 33 33 33 33 33 33 34 34 36 38 40 40 39 39 38 38 40 41 42 41 40 41 41 41
5 5 6 6 4 4 3 2 1 2 3 4 3 4 8 6 4 7 8 7 8 7 6 6 7 7 7 6 5 6 5 6 6 6 5 5 7 11 14 13 10 10 14 16 17 19 21 23 24 25 27 29 30 30 29 29 29 29 30 30 30 30 29 29 29 30 31 31 32 32 31 30 32 34 33 34 34 34 34 34 34 35 37 39 40 40 40 39 39 40 41 41 41 41 42 43 41
Wind_Direction
347 277 178 184 178 105 28 50 88 327 70 86 289 125 220 199 194 156 130 222 85 313 250 72 73 97 103 130 156 155 131 158 160 140 203 248 148 154 162 165 168 162 160 161 160 158 157 154 148 144 142 141 133 124 117 109 102 93 86 80 77 80 85 88 89 88 90 92 93 94 94 95 92 94 97 96 95 93 93 93 93 95 97 95 92 88 87 87 87 86 88 89 88 88 88 86 83
1 184 162 151 63 73 313 62 95 338 57 101 258 154 250 327 147 178 175 196 167 161 115 103 92 79 68 96 120 113 45 349 165 168 230 158 146 153 162 166 167 161 160 161 159 158 158 156 153 148 147 146 139 130 122 115 109 99 92 85 80 79 85 90 92 91 90 92 94 95 94 94 93 92 94 92 92 95 95 95 96 98 98 97 94 91 90 89 88 88 89 91 90 89 91 89 87
88 175 156 137 57 49 67 44 94 68 88 169 259 241 265 143 185 203 203 183 157 156 135 108 84 75 60 64 59 83 59 332 156 168 132 149 151 157 162 166 166 161 161 160 158 160 159 157 156 153 151 149 144 136 128 122 115 106 99 90 84 80 84 89 93 95 94 94 94 95 94 96 103 104 103 98 95 97 97 98 99 99 99 97 94 92 91 90 88 91 92 92 92 90 90 89 89
130 172 175 155 54 34 62 42 129 121 135 193 247 261 238 181 193 203 207 170 159 155 138 75 49 11 75 93 47 76 130 260 161 120 140 163 165 161 162 166 167 165 164 161 161 162 160 159 157 156 155 153 148 141 135 129 121 113 106 95 88 82 85 87 92 96 97 98 97 96 93 98 109 112 114 112 108 104 100 102 102 101 101 98 95 95 92 90 90 92 93 91 90 91 90 90 91
147 146 151 150 76 51 89 69 110 116 181 183 170 256 240 197 182 176 188 196 214 212 198 101 76 302 64 109 130 122 188 141 161 159 146 172 170 163 164 167 169 168 168 165 164 164 161 159 158 158 158 157 152 146 141 134 129 121 111 102 93 86 87 88 92 96 100 103 100 97 94 101 109 109 114 116 116 111 104 104 103 103 102 99 98 97 93 91 93 94 94 92 91 92 93 94 93
157 120 70 82 85 117 117 122 149 170 212 167 153 243 226 198 185 162 155 242 259 209 186 109 130 152 64 344 92 148 206 124 170 184 162 168 163 161 165 168 171 171 171 170 169 167 163 161 160 159 160 162 156 150 147 139 134 126 116 107 97 90 88 89 94 99 105 106 105 102 97 106 111 112 117 117 117 111 106 105 106 106 103 100 99 98 94 93 95 95 97 96 95 95 95 95 96
169 136 44 72 66 41 102 153 186 201 204 169 177 202 191 202 192 146 142 173 300 353 53 115 144 113 78 309 100 21 328 162 166 171 172 163 158 160 165 170 173 174 173 174 174 173 168 164 162 161 164 166 161 155 150 143 139 132 124 114 104 96 91 91 96 103 109 109 112 109 102 106 111 114 119 119 115 109 107 105 107 109 107 105 102 100 97 97 97 97 100 99 97 96 96 99 101
131 148 15 92 58 25 92 123 202 194 167 212 222 190 183 198 172 145 162 153 159 287 56 173 128 91 78 10 118 297 345 180 158 163 174 161 160 163 167 172 174 176 177 177 178 179 173 168 167 165 167 167 165 160 155 150 146 141 133 124 115 105 99 97 100 107 112 114 118 114 107 106 109 112 116 117 111 106 108 104 104 111 111 109 106 102 100 101 100 99 102 100 99 100 101 103 105
64 58 62 86 87 33 58 53 278 222 255 243 221 199 188 185 158 143 150 116 157 143 121 202 144 97 174 48 117 288 337 178 157 162 171 164 165 166 169 175 177 178 179 181 182 183 178 173 172 170 170 169 168 164 162 158 154 150 142 135 125 116 107 103 107 112 117 118 121 121 115 113 114 109 107 109 108 105 105 102 102 110 113 111 109 105 104 103 100 100 102 100 101 105 105 106 107
40 29 128 75 86 55 28 15 287 233 260 250 212 214 189 169 157 148 134 132 147 120 166 203 76 98 144 113 230 292 225 167 154 160 168 169 170 170 174 176 180 181 179 184 184 185 182 176 175 173 174 172 170 167 168 166 160 155 148 142 133 125 115 110 113 117 122 124 127 128 122 120 121 113 107 109 110 109 105 104 107 111 115 113 109 108 106 104 101 100 101 99 101 109 109 108 110
34 358 101 73 76 107 187 194 262 248 287 318 281 248 193 157 133 117 107 126 106 107 171 139 84 122 107 119 248 281 192 166 158 162 168 175 177 177 179 177 182 185 182 184 185 188 185 179 176 176 177 174 173 171 172 171 164 159 155 148 141 135 124 116 116 120 127 129 130 132 128 123 124 124 129 125 115 112 110 109 112 114 116 112 110 111 108 104 102 101 101 99 101 108 112 114 114
91 341 73 88 140 180 190 164 235 250 321 332 227 255 172 139 134 157 138 137 144 105 182 205 142 135 88 314 262 301 199 174 164 162 169 178 182 184 185 181 184 188 186 185 186 189 187 181 178 178 178 177 176 175 175 174 170 167 162 155 150 145 133 126 121 124 131 133 133 132 132 128 127 131 141 141 122 115 117 116 116 117 117 112 111 112 108 105 103 103 102 100 99 101 110 118 118
121 141 96 115 165 153 150 144 223 7 332 262 205 228 138 145 197 182 147 125 138 117 221 209 145 113 102 242 277 311 214 182 166 161 169 177 184 188 188 187 188 191 189 188 189 190 188 184 181 181 180 180 179 178 178 178 177 176 170 163 157 155 146 138 129 129 133 137 137 136 137 135 136 136 136 138 129 123 123 121 120 120 118 113 113 114 111 108 107 105 104 102 99 98 109 122 123
132 148 117 125 93 123 143 128 204 153 238 251 214 180 148 190 209 170 136 120 185 168 208 186 143 119 116 239 295 286 208 186 171 166 168 173 184 189 191 192 193 194 192 193 192 192 189 186 184 184 183 182 181 180 181 182 182 182 176 171 164 163 161 151 138 134 137 141 143 144 145 144 147 147 138 135 132 128 126 123 123 122 118 115 118 119 115 113 110 108 107 105 102 106 116 124 126
131 136 90 105 79 112 163 153 162 157 220 228 184 160 153 267 152 151 157 142 205 230 98 97 132 161 175 170 228 226 191 183 177 174 172 174 182 187 193 195 197 198 196 196 195 194 191 188 187 186 187 185 183 182 183 184 186 187 182 177 173 171 172 163 148 140 140 145 150 151 153 154 155 153 145 140 136 131 128 125 125 125 120 118 122 123 120 118 116 113 112 111 112 119 123 125 128
119 115 68 94 130 161 179 163 127 140 232 211 186 145 130 292 146 157 227 144 152 313 43 45 43 4 184 164 261 204 178 177 177 176 176 178 182 186 193 197 200 200 199 200 198 197 194 191 190 189 190 189 187 184 184 186 188 190 186 183 181 178 180 172 157 149 147 150 155 156 159 161 160 156 150 147 141 134 129 127 129 130 122 122 125 127 127 124 121 119 117 119 125 130 129 128 130
74 82 68 92 157 192 188 168 162 171 215 208 236 174 137 257 279 172 284 89 118 61 31 298 335 14 203 249 325 168 166 170 172 171 174 176 180 183 189 196 199 199 200 202 201 200 198 195 193 193 194 192 191 188 188 188 189 192 190 187 187 185 184 178 166 159 156 156 159 162 164 165 164 160 154 150 144 136 131 130 136 136 128 128 129 129 133 129 125 125 125 128 133 136 133 132 131
59 82 106 161 179 199 187 177 193 176 172 186 208 189 144 156 210 177 60 50 71 67 23 335 329 356 311 298 177 152 159 164 166 167 169 172 176 179 184 192 196 198 199 202 203 202 200 199 197 196 196 195 193 192 191 189 191 194 193 191 190 190 187 183 176 168 164 162 165 168 169 168 166 162 157 154 148 140 135 137 144 143 136 134 134 136 139 133 127 130 133 135 138 139 138 136 133
86 112 115 217 201 203 192 174 189 178 163 169 179 188 158 164 172 143 138 121 89 118 329 342 334 328 3 34 141 149 157 161 165 168 170 174 178 180 182 188 193 196 197 200 203 204 203 201 201 200 198 197 197 196 195 191 193 195 195 195 193 192 190 188 184 176 173 169 170 173 173 173 169 164 161 157 151 144 141 147 152 149 143 139 139 141 139 133 132 135 137 139 141 141 140 137 134
146 122 116 240 212 216 218 179 196 210 163 150 165 188 159 169 166 148 160 158 157 183 209 266 259 259 34 120 145 151 158 162 169 173 175 180 183 185 186 189 193 195 198 200 202 204 205 204 204 204 202 200 201 201 199 194 194 197 199 198 197 195 192 191 191 185 181 177 176 177 179 177 172 167 163 160 155 151 150 155 159 157 154 151 149 147 141 139 139 140 141 143 145 144 142 138 135
148 120 176 230 188 193 216 189 212 214 166 153 149 135 147 191 166 140 144 136 239 240 218 197 202 200 164 162 158 157 163 168 175 179 183 186 187 190 194 196 197 199 200 201 203 204 205 207 208 209 207 204 203 204 202 198 197 197 200 202 200 198 195 192 194 193 187 184 182 181 184 180 176 171 167 165 162 159 159 162 164 163 161 160 160 154 147 146 144 144 145 147 148 147 144 141 138
98 99 211 210 159 146 223 189 199 156 127 126 131 147 168 165 120 146 151 159 226 230 216 207 194 172 166 172 167 165 171 176 182 187 190 194 195 195 198 201 201 203 203 204 207 206 206 208 210 210 211 209 207 207 204 201 201 199 201 204 202 200 199 195 195 198 193 188 189 187 186 183 180 175 172 171 169 168 167 168 168 167 165 162 164 160 152 151 149 148 150 151 151 150 146 143 141
121 269 282 231 201 191 332 341 187 127 122 141 158 170 141 120 149 185 172 195 222 223 219 207 182 164 164 162 164 171 179 184 191 194 194 196 201 201 200 201 201 203 205 208 210 208 209 210 212 212 211 212 211 210 207 204 206 204 203 206 206 203 201 199 196 199 199 194 195 195 191 186 183 179 177 177 175 175 174 173 171 170 169 166 168 167 158 156 155 153 155 156 154 152 148 145 143
99 164 307 298 204 210 342 2 84 114 133 175 168 124 127 149 172 134 203 232 241 266 269 174 149 149 156 159 172 182 187 192 197 199 199 200 203 205 205 205 204 204 204 206 209 210 211 211 214 214 211 211 213 213 210 208 209 208 208 209 210 208 204 204 200 199 201 200 200 201 196 190 187 184 182 181 179 179 179 177 174 174 175 172 172 172 166 161 160 160 161 159 157 155 151 148 146
87 151 228 31 39 334 348 47 81 93 116 152 119 114 186 183 156 134 229 246 250 271 49 129 135 143 160 170 182 188 193 200 205 206 206 208 209 209 210 211 211 211 210 208 208 210 211 209 211 213 212 212 213 213 212 210 209 208 211 212 212 212 209 207 205 202 202 203 203 203 200 195 193 189 187 185 183 182 182 181 180 179 180 180 178 177 174 168 166 165 165 164 161 159 155 152 151
153 130 152 89 5 326 1 58 57 68 73 75 120 100 315 216 200 252 239 236 219 104 87 124 136 150 176 181 186 190 195 204 208 210 211 213 213 214 216 215 215 216 216 214 212 213 213 210 209 211 213 215 216 212 211 211 209 207 209 212 212 214 215 213 211 207 206 206 206 205 204 203 202 197 191 190 188 187 187 186 185 184 184 185 185 183 181 177 172 169 169 167 165 163 159 156 155
137 109 99 71 8 328 18 76 26 29 47 54 132 172 313 315 334 259 260 243 153 112 100 141 151 167 186 186 193 194 199 206 206 207 211 215 216 218 219 217 218 219 218 218 217 217 216 215 213 213 212 215 217 214 212 213 211 209 207 211 215 215 216 218 218 213 211 210 210 209 207 207 207 206 199 195 195 193 192 191 191 189 187 186 188 187 184 182 178 173 172 170 168 166 161 159 158
120 117 83 14 4 9 24 78 15 10 75 64 120 131 318 355 350 230 267 310 158 147 141 166 175 186 193 192 199 199 208 212 207 205 208 212 214 216 218 219 220 219 220 221 220 219 218 218 216 216 214 215 219 218 215 212 212 212 211 212 216 217 216 219 222 220 218 215 213 213 211 210 207 208 207 203 202 200 197 199 198 196 194 190 191 191 186 184 181 176 175 172 170 168 163 160 160
116 104 86 351 6 26 353 52 340 15 106 342 107 74 299 253 232 239 281 330 147 155 168 193 201 206 206 204 209 209 218 216 207 212 216 217 217 215 218 221 220 220 222 222 222 222 221 221 219 218 217 217 219 221 218 214 214 214 214 214 213 216 216 219 223 222 221 219 218 216 214 214 211 210 209 205 204 202 200 203 204 203 202 198 194 194 190 186 185 180 176 174 172 170 166 162 161
123 67 91 51 19 357 292 357 339 88 99 328 114 206 273 250 243 247 305 10 118 173 209 219 223 226 222 213 220 225 224 215 212 219 221 223 223 221 223 224 222 223 225 223 223 224 222 223 222 220 219 218 219 221 220 219 218 217 217 217 217 218 217 220 225 223 222 220 222 223 219 218 216 214 211 207 205 203 201 201 204 204 206 205 199 196 194 189 187 184 178 175 174 171 168 165 165
100 71 63 81 108 256 293 323 42 132 4 9 98 188 269 269 266 267 295 271 159 204 229 229 235 238 231 220 224 234 230 220 222 225 226 227 227 227 228 229 226 225 226 225 225 225 224 224 223 221 220 219 220 221 222 221 222 222 221 221 220 221 221 223 223 225 226 221 221 226 224 222 220 217 215 211 207 205 204 202 202 202 205 207 201 197 195 191 188 185 181 178 173 171 168 165 167
44 107 327 1 157 254 305 296 169 150 296 33 92 206 271 273 277 291 303 203 179 211 231 236 239 237 236 230 226 235 241 233 233 235 233 233 232 231 232 231 229 227 226 226 226 225 225 224 222 221 219 219 221 222 223 222 223 225 226 225 223 222 225 224 220 223 226 219 219 224 223 221 219 217 217 213 208 208 208 206 205 204 203 205 202 198 196 193 189 184 183 182 176 170 167 164 165
357 106 184 234 162 247 307 290 252 139 112 23 81 212 271 277 275 302 335 149 178 219 242 247 242 241 238 232 232 236 247 247 242 240 237 236 235 234 234 234 232 230 229 227 227 226 225 224 222 221 220 219 221 223 223 223 223 225 228 229 227 225 227 227 226 229 227 222 224 227 225 223 221 219 218 215 212 212 211 208 207 207 204 204 202 199 197 195 191 186 183 183 182 174 169 166 163
290 60 131 213 174 182 265 265 295 56 113 278 37 232 253 271 285 300 322 110 165 224 248 254 249 250 246 239 243 241 243 247 243 240 237 235 236 236 236 236 235 233 231 229 228 227 227 225 222 221 222 221 221 222 222 223 224 226 228 229 229 227 227 229 231 232 231 229 230 230 229 229 229 228 222 217 216 214 211 208 207 207 205 203 201 197 195 193 190 189 183 180 183 179 173 169 165
189 180 150 192 202 197 226 236 253 57 100 197 115 262 261 273 290 290 288 282 214 245 251 260 259 256 255 249 245 244 245 246 243 242 241 238 237 237 236 235 234 233 231 229 229 228 228 227 225 223 222 221 221 222 222 222 224 226 226 225 226 227 228 229 230 231 231 232 231 231 232 234 235 234 228 221 219 218 214 212 211 208 206 204 200 195 192 190 187 188 184 179 179 178 176 172 166
173 177 147 152 179 222 238 246 265 126 123 210 210 230 266 276 287 287 278 263 259 272 277 272 264 258 255 250 244 242 243 246 247 248 248 246 242 238 235 233 231 231 229 227 226 226 225 224 223 221 220 219 219 218 217 218 220 222 222 223 224 226 228 228 230 231 232 233 234 234 236 235 231 226 224 222 222 223 219 216 215 211 208 205 201 198 194 191 188 186 183 179 175 171 172 170 167
146 131 110 138 165 221 244 254 304 99 139 241 233 242 272 273 274 273 275 303 287 274 275 268 261 257 253 248 247 241 238 251 260 258 253 249 245 241 235 230 226 225 224 223 222 222 223 222 221 219 217 216 217 215 214 215 216 218 220 223 226 227 229 229 230 231 232 234 234 233 233 234 232 224 219 218 217 217 214 214 214 211 209 206 204 202 196 191 189 186 182 179 176 171 168 167 167
116 137 128 114 168 212 231 195 317 349 148 259 353 311 272 266 269 270 274 283 264 249 249 255 254 253 254 249 251 250 250 267 274 264 254 244 241 237 231 226 220 219 219 219 219 220 219 219 220 219 217 215 216 216 215 216 217 219 222 225 228 230 231 232 232 232 233 233 233 233 233 235 238 236 230 224 217 212 209 210 211 212 211 208 203 199 194 190 187 187 182 177 178 177 171 168 166
100 125 133 140 191 204 278 298 339 7 108 260 353 345 275 267 267 266 258 249 248 239 233 242 247 250 252 247 249 256 265 273 270 263 254 242 234 228 224 220 219 219 218 217 217 217 216 216 218 217 216 215 215 216 216 218 219 222 226 229 233 234 235 235 234 233 233 233 233 234 234 234 236 240 240 233 223 216 212 210 211 211 210 205 199 195 193 191 187 188 187 180 177 176 174 174 173
93 114 133 163 205 132 186 262 333 16 66 212 338 314 280 282 286 272 258 248 259 260 247 247 244 245 250 250 248 246 249 257 260 261 258 246 232 222 218 217 217 216 214 213 213 214 215 215 216 215 215 215 215 215 216 218 221 223 227 232 236 238 239 237 235 234 233 232 233 232 233 232 231 233 236 233 225 219 217 217 218 213 209 204 199 196 193 191 190 191 189 183 179 174 173 178 180
59 143 141 159 184 163 180 199 61 16 20 45 35 332 295 306 318 285 281 299 280 272 277 270 252 246 255 267 264 244 239 244 245 248 251 244 228 219 217 216 215 211 210 213 213 214 215 215 215 215 215 215 215 216 216 218 220 223 226 229 232 235 237 235 232 232 231 231 231 231 232 231 231 230 231 231 229 225 222 224 222 214 209 205 201 199 196 193 194 194 191 188 188 184 179 180 183
285 206 173 170 165 149 126 90 74 42 356 355 28 348 290 314 312 270 295 341 301 283 295 274 258 250 255 260 258 248 243 240 233 238 241 236 228 221 218 215 212 211 213 215 215 216 217 216 215 215 215 216 216 217 218 220 223 225 226 225 225 226 229 230 231 232 232 231 231 231 230 229 230 232 233 233 230 229 228 226 221 215 211 208 204 203 200 196 196 196 195 193 194 193 186 180 185
188 222 167 146 130 121 123 116 96 111 241 320 43 142 257 312 298 265 308 335 302 297 290 274 264 240 244 246 247 248 247 241 232 238 238 231 224 215 214 214 211 213 215 215 215 216 217 217 217 216 217 218 219 220 221 223 225 227 228 228 230 230 231 234 236 238 238 237 236 234 232 230 230 232 235 236 231 227 225 223 219 216 214 211 207 204 201 200 200 200 199 197 197 196 190 185 187
194 212 124 121 119 126 136 118 103 181 232 327 16 118 218 296 269 270 327 328 302 300 284 279 287 257 249 249 249 253 258 255 238 234 229 222 216 210 212 214 212 214 214 213 215 216 217 219 218 218 219 220 221 222 223 225 227 228 229 231 234 235 237 241 243 244 244 244 244 241 240 238 237 236 235 234 233 229 224 221 218 214 212 210 208 207 205 203 203 201 199 199 199 197 197 194 189
226 182 115 112 114 121 117 96 92 59 354 311 312 121 181 271 271 301 345 322 292 285 271 279 302 297 272 262 259 260 265 263 243 229 222 216 214 214 216 215 213 213 214 214 216 217 218 218 219 219 221 222 223 224 225 227 229 231 232 233 235 237 240 244 247 248 249 251 251 249 248 244 240 239 236 233 232 230 227 224 222 218 216 214 213 212 210 207 205 202 200 201 202 202 202 198 193
181 140 96 76 74 79 77 86 95 54 20 250 250 186 191 265 283 307 347 275 258 263 269 276 289 292 283 274 275 281 287 278 253 241 234 223 218 216 215 214 214 213 213 215 216 216 216 217 218 220 222 224 225 226 227 228 229 231 233 234 236 238 240 242 245 248 249 252 253 252 249 244 239 236 235 235 233 231 229 227 225 223 222 221 220 217 213 210 208 207 205 204 204 204 203 201 200
140 111 74 61 37 35 49 55 77 62 306 255 246 234 186 265 278 258 218 217 217 236 285 289 295 305 297 285 289 300 311 315 296 274 265 238 215 210 208 208 211 211 210 213 214 215 215 216 218 220 223 225 226 228 229 230 231 232 234 236 238 239 240 241 241 244 246 248 249 249 245 242 240 237 235 236 235 233 231 230 228 227 225 224 223 219 216 214 212 210 208 206 205 205 204 204 205
108 91 90 85 8 10 25 2 41 101 257 260 264 255 167 223 259 250 243 253 224 208 256 275 289 305 302 298 301 300 301 314 324 313 289 228 180 183 195 201 204 205 206 208 211 214 215 216 218 220 223 225 227 229 230 231 232 234 236 238 239 241 241 241 241 242 244 245 245 245 245 243 242 241 239 239 236 233 232 231 229 228 226 224 223 222 219 216 214 211 207 206 207 206 207 208 208
76 101 107 100 12 15 357 315 350 221 247 261 271 233 206 235 247 257 265 267 243 220 230 240 258 289 304 306 299 297 302 305 313 309 253 222 197 187 191 196 200 201 204 207 209 212 214 216 218 221 224 227 229 230 231 233 234 236 237 238 240 242 243 243 244 245 246 247 246 244 244 244 243 241 241 241 238 234 232 231 230 228 227 226 226 225 221 216 213 211 209 209 209 209 210 212 213
120 136 128 127 123 103 241 266 283 255 259 292 279 236 259 268 256 250 253 258 249 232 231 231 245 275 289 291 287 294 301 293 290 285 248 215 215 211 201 200 202 205 207 208 209 211 213 216 218 222 226 229 230 232 233 235 237 238 239 241 242 243 244 245 245 247 249 249 248 246 244 246 247 243 240 241 242 239 235 232 232 231 230 229 228 226 222 218 216 214 213 213 213 214 213 214 216
162 160 129 144 156 153 199 216 211 241 271 304 291 244 202 217 266 253 247 270 289 256 243 251 258 262 268 284 288 283 282 280 287 292 280 250 234 231 219 211 210 212 211 209 209 211 214 217 220 223 227 229 231 233 234 236 238 240 241 242 244 245 246 247 247 249 251 251 251 249 247 248 250 248 245 243 242 243 240 236 233 232 232 231 229 227 222 218 218 217 217 217 217 217 215 215 217
230 125 103 157 183 142 140 184 177 176 302 289 252 239 213 213 282 282 266 291 291 268 269 286 274 277 295 299 284 272 272 274 281 285 281 278 267 249 234 222 220 220 216 213 213 214 216 220 222 226 230 233 234 235 237 239 240 242 242 243 245 246 246 247 247 249 251 252 253 253 252 251 253 253 251 247 243 241 241 239 236 234 233 231 229 226 222 219 219 219 219 218 218 217 216 217 218
163 125 168 210 171 113 114 203 69 82 233 264 225 254 290 323 296 296 311 300 290 292 298 278 268 290 311 289 274 282 284 269 261 259 266 279 276 262 248 234 229 227 222 220 219 220 222 224 226 229 232 234 236 237 239 240 241 242 243 244 245 246 246 247 248 250 251 252 253 255 255 253 254 253 252 251 248 243 239 238 237 236 234 231 229 228 225 221 220 220 220 220 220 219 218 219 220
121 169 205 189 119 89 109 171 5 46 234 274 284 240 285 324 281 315 337 285 275 284 280 268 271 284 280 269 268 273 270 263 263 258 262 270 266 262 257 246 239 235 230 229 230 230 230 230 230 232 234 236 237 239 240 241 242 243 245 246 247 247 248 249 250 252 253 252 252 254 256 254 253 253 252 252 251 246 241 238 236 235 233 231 230 229 227 224 221 222 222 222 222 220 219 220 222
124 184 178 120 144 173 102 148 175 143 230 281 302 278 261 210 227 295 287 224 246 267 273 265 263 258 252 245 256 275 280 283 277 262 259 263 256 255 254 249 244 239 235 235 237 239 237 235 235 235 238 241 241 242 243 243 244 245 247 249 250 250 250 251 252 253 253 252 250 252 256 255 254 253 253 252 251 249 246 242 238 235 234 232 231 229 228 226 223 223 224 224 224 223 222 222 223
56 111 108 84 134 164 161 155 164 174 199 256 308 320 265 223 215 210 208 210 212 223 249 243 242 249 257 228 210 263 280 279 270 258 251 253 254 257 255 249 245 240 239 238 238 240 242 240 238 237 239 240 240 241 243 244 245 246 248 250 251 251 250 251 252 252 252 252 251 251 254 256 255 254 254 253 253 251 250 248 243 239 236 234 232 231 230 228 226 225 226 225 225 224 223 224 224
126 135 166 184 75 114 159 109 115 141 160 186 272 299 265 247 215 196 203 207 201 197 209 236 246 261 278 275 240 242 255 259 262 259 253 255 264 271 263 249 243 242 244 242 238 240 242 242 242 241 240 239 239 240 242 244 246 246 248 250 251 251 251 251 252 252 253 253 251 251 253 256 255 254 254 254 254 253 252 251 249 245 241 237 234 232 231 230 228 228 228 227 226 225 225 226 227
163 175 189 182 150 124 150 231 240 118 137 170 176 263 264 249 206 204 209 207 212 213 208 234 260 262 270 277 255 239 240 249 260 263 264 262 262 264 256 243 239 248 248 243 240 241 242 244 245 245 245 244 243 243 243 245 246 247 249 250 251 252 252 252 251 251 252 252 251 251 252 253 253 253 253 254 255 255 254 252 250 248 244 240 237 235 234 233 231 231 230 229 228 227 228 228 227